Weather observations for the past three days for
Vavau International Airport
Imperial (Metric)
Date Time (+13) Wind (mph) Vis. (mi.) Weather Sky Cond. Temperature (ºF) Relative Humidity Wind Chill (°F) Heat Index (°F) Pressure Precipitation (in)
Air Dwpt 6 hour altimeter (in) sea level (mb) 1 hr 3 hr 6 hr
Max. Min.
08 19:00 SW 5 0.00 A Few Clouds FEW016TCU 77 68 74% 79 0 0.0
08 18:00 SW 5 0.00 A Few Clouds FEW015TCU 78.8 68 70% 81 0 0.0
08 17:00 W 6 0.00 A Few Clouds FEW015TCU 80.6 71.6 74% 85 0 0.0
08 16:00 W 9 0.00 A Few Clouds FEW015TCU 82.4 66.2 58% 85 0 0.0
08 15:00 SW 6 0.00 A Few Clouds FEW015TCU 82.4 69.8 66% 86 0 0.0
08 14:00 W 8 0.00 A Few Clouds FEW015TCU 82.4 69.8 66% 86 0 0.0
08 13:00 W 5 0.00 A Few Clouds FEW015TCU 82.4 69.8 66% 86 0 0.0
08 12:00 W 9 0.00 Partly Cloudy SCT016TCU 82.4 69.8 66% 86 0 0.0
08 11:00 W 8 0.00 Partly Cloudy SCT016TCU 80.6 69.8 70% 84 0 0.0
08 10:00 W 9 0.00 A Few Clouds FEW017 80.6 71.6 74% 85 0 0.0
08 09:00 W 6 0.00 A Few Clouds FEW017 78.8 68 70% 81 0 0.0
08 08:00 Vrbl 2 0.00 A Few Clouds FEW016TCU 73.4 68 83% 0 0.0
08 07:00 Calm 0.00 A Few Clouds FEW016TCU 69.8 66.2 88% 0 0.0
08 06:00 Calm 0.00 A Few Clouds FEW015TCU 73.4 68 83% 0 0.0
08 05:00 Calm 0.00 A Few Clouds FEW015TCU 73.4 66.2 78% 0 0.0
08 04:00 Vrbl 2 0.00 A Few Clouds FEW015 73.4 66.2 78% 0 0.0
08 03:00 W 7 0.00 A Few Clouds FEW016TCU 73.4 68 83% 0 0.0
08 02:00 W 7 0.00 A Few Clouds FEW016TCU 73.4 66.2 78% 0 0.0
08 01:00 SW 10 0.00 Partly Cloudy FEW016 SCT017 77 68 74% 79 0 0.0
07 23:00 W 5 0.00 A Few Clouds FEW014 75.2 68 78% 76 0 0.0
07 22:00 NW 7 0.00 A Few Clouds FEW016 75.2 68 78% 76 0 0.0
07 21:00 W 9 0.00 A Few Clouds FEW015 77 68 74% 79 0 0.0
07 20:00 W 7 0.00 A Few Clouds FEW014 75.2 68 78% 76 0 0.0
07 19:00 W 7 0.00 A Few Clouds FEW014 77 66.2 69% 79 0 0.0
07 18:00 W 8 0.00 A Few Clouds FEW014 78.8 69.8 74% 81 0 0.0
07 17:00 W 10 0.00 A Few Clouds FEW014 78.8 68 70% 81 0 0.0
07 16:00 W 12 0.00 A Few Clouds FEW014 80.6 68 66% 83 0 0.0
07 15:00 W 12 0.00 A Few Clouds FEW014 80.6 69.8 70% 84 0 0.0
07 13:00 W 12 0.00 A Few Clouds FEW016 80.6 69.8 70% 84 0 0.0
07 12:00 NW 10 0.00 A Few Clouds FEW015 80.6 69.8 70% 84 0 0.0
07 11:00 W 10 0.00 Partly Cloudy FEW010 SCT016TCU 77 71.6 83% 78 0 0.0
07 10:00 NW 6 0.00 Mostly Cloudy SCT016 BKN035 77 71.6 83% 78 0 0.0
07 09:00 Calm 0.00 Partly Cloudy SCT016TCU 75.2 71.6 89% 75 0 0.0
07 08:00 Calm 0.00 A Few Clouds FEW016TCU 73.4 69.8 89% 0 0.0
07 07:00 Calm 0.00 A Few Clouds FEW016TCU 71.6 71.6 100% 0 0.0
07 05:00 Calm 0.00 A Few Clouds FEW020 73.4 71.6 94% 0 0.0
07 04:00 Calm 0.00 A Few Clouds FEW018 73.4 73.4 100% 0 0.0
07 03:00 Calm 0.00 A Few Clouds FEW017 73.4 71.6 94% 0 0.0
07 02:00 S 5 0.00 A Few Clouds FEW017 75.2 71.6 89% 75 0 0.0
07 01:00 S 6 0.00 A Few Clouds FEW016TCU 75.2 73.4 94% 74 0 0.0
06 19:00 Calm 0.00 A Few Clouds FEW015TCU 75.2 75.2 100% 73 0 0.0
06 18:00 Calm 0.00 A Few Clouds FEW015TCU 77 75.2 94% 78 0 0.0
06 17:00 SE 5 0.00 Partly Cloudy SCT016TCU 77 75.2 94% 78 0 0.0
06 16:00 SE 5 0.00 Overcast FEW008 BKN016TCU OVC130 77 75.2 94% 78 0 0.0
06 15:00 SE 5 0.00 Overcast SCT007 BKN016TCU OVC130 75.2 73.4 94% 74 0 0.0
06 09:00 NE 14 0.00 Mostly Cloudy SCT008 SCT014TCU BKN260 80.6 75.2 84% 86 0 0.0
06 08:00 E 16 0.00 Light Drizzle FEW007 SCT014TCU BKN270 78.8 75.2 89% 82 0 0.0
06 07:00 E 18 0.00 Mostly Cloudy FEW006 SCT015 BKN035 77 75.2 94% 78 0 0.0
06 06:00 E 17 0.00 Mostly Cloudy FEW007 SCT015TCU BKN120 77 73.4 89% 78 0 0.0
06 05:00 E 15 G 28 0.00 Mostly Cloudy FEW007 SCT015 BKN110 77 73.4 89% 78 0 0.0
06 04:00 E 16 G 29 0.00 Mostly Cloudy FEW008 SCT015TCU BKN110 77 73.4 89% 78 0 0.0
06 03:00 E 16 G 28 0.00 Light Rain SCT008 SCT015TCU BKN037 77 77 100% 78 0 0.0
Date Time (+13) Wind (mph) Vis. (mi.) Weather Sky Cond. Air Dwpt Max. Min. Relative Humidity Wind Chill (°F) Heat Index (°F) altimeter (in) sea level (mb) 1 hr 3 hr 6 hr
6 hour
Temperature (ºF) Pressure Precipitation (in)